Track SNAP-3 EDDIE now! 10-day predictions SNAP-3 EDDIE is classified as:
1 40972U 15058J 25181.41707554 .00012542 00000-0 50107-3 0 9991 2 40972 64.7560 189.6005 0086336 191.0129 168.9112 15.22017971 64957